Location: Newark
(7.0858°N, 171.3717°E)
Time: 07:36:45
(UTC+00:00)

Courier 1B - Pass Details

Date: 04 December 2020
Orbit: 962 x 1209 km, 28.3° (Epoch: 20 January)

Event Time Altitude Azimuth Distance (km) Brightness Sun altitude
Rises 03:30:46 0° 218° (SW) 3,800 11.5 35.8°
Reaches altitude 10° 03:34:00 10° 205° (SSW) 2,806 10.9 35.2°
Maximum altitude 03:39:32 26° 151° (SSE) 1,823 9.2 34.0°
Drops below altitude 10° 03:44:52 10° 95° (E) 2,704 9.5 32.9°
Sets 03:47:54 0° 83° (E) 3,636 10.0 32.3°
